Boulder City, NV

4:47 AM PST on December 07, 2019 (GMT -0800)
Boulder City

Weather History for KBVU - November, 2019

Change the Weather History Date:

Sunday, November 17, 2019

  Actual Average (KLAS) Record (KLAS)
Temperature  
Mean Temperature 65 °F -  
Max Temperature 75 °F 66 °F 81 °F (2008)
Min Temperature 53 °F 42 °F 28 °F (1951)
Growing Degree Days 15 (Base 50)    
Moisture  
Dew Point 23 °F    
Average Humidity 21    
Maximum Humidity 31    
Minimum Humidity 12    
Precipitation  
Precipitation 0.00 in - - ()
Sea Level Pressure  
Sea Level Pressure 30.13 in    
Wind  
Wind Speed 6 mph ()    
Max Wind Speed 17 mph    
Max Gust Speed 20 mph    
Visibility 10.0 miles    
Events      
Averages and records for this station are not official NWS values.
T = Trace of Precipitation, MM = Missing Value Source: Averaged Metar Reports

Daily Weather History Graph

Daily Weather History Graph

Search for Another Location

Airport or City:

Astronomy

Nov. 17, 2019 Rise Set
Actual Time 6:17 AM PST 4:30 PM PST
Civil Twilight 5:50 AM PST 4:58 PM PST
Nautical Twilight 5:19 AM PST 5:29 PM PST
Astronomical Twilight 4:48 AM PST 5:59 PM PST
Moon 9:14 PM PST (11/17) 11:04 AM PST (11/17)
Length of Visible Light 11h 07m
Length of Day
10h 13m
Waning Gibbous, 72% of the Moon is Illuminated
Nov 17
Waning Gibbous
Nov 19
Last Quarter
Nov 26
New
Dec 3
First Quarter
Dec 11
Full

Hourly Weather History & Observations

Time (PST) Temp. Dew Point Humidity Pressure Visibility Wind Dir Wind Speed Gust Speed Precip Events Conditions
12:15 AM 59.0 °F 21.2 °F 23% 30.14 in 10.0 mi Calm Calm - N/A   Clear
12:35 AM 64.4 °F 23.0 °F 21% 30.14 in 10.0 mi North 8.1 mph - N/A   Clear
12:55 AM 66.2 °F 23.0 °F 19% 30.14 in 10.0 mi NNE 15.0 mph - N/A   Clear
1:55 AM 55.4 °F 19.4 °F 25% 30.16 in 10.0 mi Calm Calm - N/A   Clear
2:15 AM 57.2 °F 21.2 °F 25% 30.16 in 10.0 mi Calm Calm - N/A   Clear
2:35 AM 59.0 °F 21.2 °F 23% 30.16 in 10.0 mi Calm Calm - N/A   Clear
2:55 AM 57.2 °F 23.0 °F 27% 30.16 in 10.0 mi Variable 3.5 mph - N/A   Clear
3:15 AM 62.6 °F 24.8 °F 24% 30.16 in 10.0 mi North 16.1 mph - N/A   Clear
3:35 AM 62.6 °F 24.8 °F 24% 30.16 in 10.0 mi North 13.8 mph 19.6 mph N/A   Clear
3:55 AM 62.6 °F 24.8 °F 24% 30.16 in 10.0 mi North 13.8 mph 19.6 mph N/A   Clear
4:15 AM 60.8 °F 24.8 °F 25% 30.17 in 10.0 mi North 9.2 mph - N/A   Clear
4:35 AM 60.8 °F 24.8 °F 25% 30.17 in 10.0 mi North 13.8 mph - N/A   Clear
4:55 AM 62.6 °F 24.8 °F 24% 30.18 in 10.0 mi North 17.3 mph - N/A   Clear
5:15 AM 62.6 °F 24.8 °F 24% 30.19 in 10.0 mi North 17.3 mph - N/A   Clear
5:35 AM 60.8 °F 24.8 °F 25% 30.19 in 10.0 mi NNW 16.1 mph - N/A   Clear
5:55 AM 60.8 °F 24.8 °F 25% 30.19 in 10.0 mi North 12.7 mph - N/A   Clear
6:35 AM 60.8 °F 24.8 °F 25% 30.20 in 10.0 mi NE 4.6 mph 13.8 mph N/A   Clear
6:55 AM 57.2 °F 26.6 °F 31% 30.20 in 10.0 mi Calm Calm - N/A   Clear
7:15 AM 62.6 °F 24.8 °F 24% 30.21 in 10.0 mi Calm Calm - N/A   Clear
7:35 AM 62.6 °F 24.8 °F 24% 30.21 in 10.0 mi North 9.2 mph - N/A   Clear
8:15 AM 64.4 °F 24.8 °F 22% 30.22 in 10.0 mi North 15.0 mph - N/A   Clear
8:35 AM 66.2 °F 24.8 °F 21% 30.22 in 10.0 mi North 12.7 mph - N/A   Clear
8:55 AM 66.2 °F 24.8 °F 21% 30.21 in 10.0 mi North 10.4 mph - N/A   Clear
9:15 AM 68.0 °F 24.8 °F 20% 30.21 in 10.0 mi North 10.4 mph - N/A   Clear
9:35 AM 69.8 °F 24.8 °F 18% 30.21 in 10.0 mi North 12.7 mph - N/A   Clear
9:55 AM 69.8 °F 24.8 °F 18% 30.20 in 10.0 mi North 13.8 mph - N/A   Clear
10:15 AM 69.8 °F 24.8 °F 18% 30.19 in 10.0 mi North 13.8 mph 19.6 mph N/A   Clear
10:35 AM 71.6 °F 24.8 °F 17% 30.19 in 10.0 mi North 9.2 mph - N/A   Clear
10:55 AM 71.6 °F 24.8 °F 17% 30.17 in 10.0 mi NNE 13.8 mph - N/A   Clear
11:35 AM 73.4 °F 24.8 °F 16% 30.14 in 10.0 mi Variable 5.8 mph 13.8 mph N/A   Clear
11:55 AM 73.4 °F 23.0 °F 15% 30.13 in 10.0 mi NNW 9.2 mph - N/A   Clear
12:15 PM 73.4 °F 23.0 °F 15% 30.12 in 10.0 mi Variable 5.8 mph 11.5 mph N/A   Clear
12:35 PM 73.4 °F 23.0 °F 15% 30.10 in 10.0 mi North 9.2 mph - N/A   Clear
12:55 PM 73.4 °F 23.0 °F 15% 30.10 in 10.0 mi Variable 5.8 mph - N/A   Clear
1:15 PM 73.4 °F 23.0 °F 15% 30.09 in 10.0 mi Calm Calm - N/A   Clear
1:35 PM 75.2 °F 21.2 °F 13% 30.09 in 10.0 mi NE 5.8 mph - N/A   Clear
1:55 PM 75.2 °F 21.2 °F 13% 30.08 in 10.0 mi ENE 5.8 mph - N/A   Clear
2:15 PM 75.2 °F 19.4 °F 12% 30.08 in 10.0 mi NE 6.9 mph - N/A   Clear
2:35 PM 75.2 °F 21.2 °F 13% 30.08 in 10.0 mi Variable 4.6 mph - N/A   Clear
2:55 PM 75.2 °F 21.2 °F 13% 30.08 in 10.0 mi Variable 3.5 mph - N/A   Clear
3:15 PM 75.2 °F 21.2 °F 13% 30.08 in 10.0 mi NW 8.1 mph - N/A   Clear
3:35 PM 75.2 °F 21.2 °F 13% 30.08 in 10.0 mi WNW 8.1 mph - N/A   Clear
3:55 PM 73.4 °F 19.4 °F 13% 30.08 in 10.0 mi West 4.6 mph - N/A   Clear
4:15 PM 73.4 °F 19.4 °F 13% 30.08 in 10.0 mi West 4.6 mph - N/A   Clear
4:35 PM 69.8 °F 19.4 °F 15% 30.08 in 10.0 mi WNW 4.6 mph - N/A   Clear
5:15 PM 64.4 °F 23.0 °F 21% 30.09 in 10.0 mi Calm Calm - N/A   Clear
5:35 PM 64.4 °F 23.0 °F 21% 30.09 in 10.0 mi Calm Calm - N/A   Clear
5:55 PM 62.6 °F 21.2 °F 20% 30.09 in 10.0 mi NNW 5.8 mph - N/A   Clear
6:15 PM 64.4 °F 21.2 °F 19% 30.09 in 10.0 mi NNW 5.8 mph - N/A   Clear
6:35 PM 62.6 °F 21.2 °F 20% 30.10 in 10.0 mi Calm Calm - N/A   Clear
7:15 PM 62.6 °F 21.2 °F 20% 30.10 in 10.0 mi Calm Calm - N/A   Clear
7:35 PM 62.6 °F 21.2 °F 20% 30.10 in 10.0 mi North 6.9 mph - N/A   Clear
7:55 PM 60.8 °F 23.0 °F 23% 30.10 in 10.0 mi NE 4.6 mph - N/A   Clear
8:15 PM 62.6 °F 23.0 °F 22% 30.10 in 10.0 mi NNE 8.1 mph - N/A   Clear
8:35 PM 62.6 °F 21.2 °F 20% 30.10 in 10.0 mi Variable 5.8 mph - N/A   Clear
8:55 PM 60.8 °F 19.4 °F 20% 30.10 in 10.0 mi NW 4.6 mph - N/A   Clear
9:15 PM 59.0 °F 23.0 °F 25% 30.10 in 10.0 mi Calm Calm - N/A   Clear
9:35 PM 57.2 °F 26.6 °F 31% 30.10 in 10.0 mi NNW 4.6 mph - N/A   Clear
9:55 PM 59.0 °F 23.0 °F 25% 30.10 in 10.0 mi Calm Calm - N/A   Clear
10:15 PM 59.0 °F 23.0 °F 25% 30.09 in 10.0 mi NNW 4.6 mph - N/A   Clear
10:35 PM 59.0 °F 21.2 °F 23% 30.09 in 10.0 mi Calm Calm - N/A   Clear
10:55 PM 59.0 °F 21.2 °F 23% 30.09 in 10.0 mi North 4.6 mph - N/A   Clear
11:15 PM 57.2 °F 17.6 °F 21% 30.09 in 10.0 mi Calm Calm - N/A   Clear
11:35 PM 55.4 °F 23.0 °F 29% 30.09 in 10.0 mi Calm Calm - N/A   Clear
11:55 PM 53.6 °F 21.2 °F 28% 30.09 in 10.0 mi Calm Calm - N/A   Clear